When you browse on this site, cookies collect data to enhance your experience and personalize the content and advertising you see.
Visit our Privacy Policy to learn more. By continuing to use the site, you agree to this use of cookies and data.
  • In Romania
  • List of Countries
  • For 7 days
  • Water Temperature
  • Satellite Maps
  • Weather Map
  • Weather Widgets
  • user-avatar
    Login

    Hourly Weather Besedka

    Today, 24 March, Sunday

    Time Temperature Precipitation Wind Pressure Humidity
    00:00 -3°C° 0 mm 2 mps 735 mmHg 97%
    01:00 -3°C° 0 mm 2 mps 735 mmHg 97%
    02:00 -4°C° 0 mm 2 mps 735 mmHg 97%
    03:00 -4°C° 0 mm 1 mps 735 mmHg 95%
    04:00 -4°C° 0 mm 1 mps 735 mmHg 95%
    05:00 -4°C° 0 mm 1 mps 736 mmHg 96%
    06:00 -6°C° 0 mm 2 mps 736 mmHg 96%
    07:00 -5°C° 0 mm 2 mps 736 mmHg 97%
    08:00 -4°C° 0 mm 2 mps 735 mmHg 97%
    09:00 -3°C° 0 mm 2 mps 735 mmHg 98%
    10:00 -3°C° 0.1 mm 2 mps 735 mmHg 99%
    11:00 -2°C° 0.1 mm 2 mps 735 mmHg 99%
    12:00 -2°C° 0.1 mm 2 mps 734 mmHg 99%
    13:00 -2°C° 0.7 mm 2 mps 734 mmHg 99%
    14:00 -2°C° 0.7 mm 3 mps 733 mmHg 99%
    15:00 -2°C° 0 mm 2 mps 733 mmHg 99%
    16:00 -2°C° 1 mm 2 mps 732 mmHg 99%
    17:00 -2°C° 1 mm 2 mps 731 mmHg 98%
    18:00 -2°C° 1 mm 2 mps 730 mmHg 98%
    19:00 -2°C° 0.7 mm 2 mps 730 mmHg 98%
    20:00 -2°C° 0.7 mm 2 mps 729 mmHg 98%
    21:00 -2°C° 0.7 mm 2 mps 728 mmHg 97%
    22:00 -2°C° 0.4 mm 3 mps 728 mmHg 96%
    23:00 -3°C° 0.4 mm 4 mps 727 mmHg 95%

    Tomorrow, 25 March, Monday

    Time Temperature Precipitation Wind Pressure Humidity
    00:00 -4°C° 0.4 mm 5 mps 727 mmHg 93%
    01:00 -5°C° 0.3 mm 6 mps 726 mmHg 92%
    02:00 -6°C° 0.3 mm 7 mps 726 mmHg 91%
    03:00 -6°C° 0.3 mm 8 mps 726 mmHg 89%
    04:00 -7°C° 0.1 mm 7 mps 725 mmHg 89%
    05:00 -8°C° 0.1 mm 7 mps 725 mmHg 90%
    06:00 -9°C° 0.1 mm 7 mps 725 mmHg 90%
    07:00 -8°C° 0 mm 7 mps 726 mmHg 90%
    08:00 -6°C° 0 mm 6 mps 726 mmHg 89%
    09:00 -5°C° 0 mm 6 mps 727 mmHg 89%
    10:00 -4°C° 0 mm 6 mps 727 mmHg 92%
    11:00 -4°C° 0 mm 6 mps 727 mmHg 95%
    12:00 -3°C° 0 mm 6 mps 728 mmHg 98%
    13:00 -3°C° 0 mm 6 mps 728 mmHg 97%
    14:00 -3°C° 0 mm 6 mps 728 mmHg 95%
    15:00 -3°C° 0 mm 6 mps 729 mmHg 93%
    16:00 -3°C° 0 mm 6 mps 729 mmHg 90%
    17:00 -4°C° 0 mm 5 mps 730 mmHg 88%
    18:00 -4°C° 0 mm 5 mps 730 mmHg 86%
    19:00 -3°C° 0 mm 4 mps 731 mmHg 87%
    20:00 -4°C° 0 mm 4 mps 732 mmHg 87%
    21:00 -4°C° 0 mm 4 mps 732 mmHg 88%
    22:00 -5°C° 0 mm 4 mps 733 mmHg 89%
    23:00 -6°C° 0 mm 3 mps 733 mmHg 90%

    Day after tomorrow, 26 March, Tuesday

    Time Temperature Precipitation Wind Pressure Humidity
    00:00 -7°C° 0 mm 3 mps 733 mmHg 91%
    01:00 -7°C° 0 mm 3 mps 734 mmHg 90%
    02:00 -8°C° 0 mm 3 mps 734 mmHg 90%
    03:00 -7°C° 0 mm 2 mps 734 mmHg 89%
    04:00 -7°C° 0 mm 2 mps 734 mmHg 88%
    05:00 -7°C° 0 mm 2 mps 734 mmHg 87%
    06:00 -6°C° 0 mm 1 mps 735 mmHg 86%
    07:00 -6°C° 0 mm 2 mps 735 mmHg 86%
    08:00 -4°C° 0 mm 2 mps 735 mmHg 85%
    09:00 -4°C° 0 mm 3 mps 735 mmHg 85%
    10:00 -4°C° 0 mm 3 mps 735 mmHg 90%
    11:00 -3°C° 0 mm 4 mps 734 mmHg 94%
    12:00 -3°C° 0 mm 4 mps 734 mmHg 99%
    13:00 -2°C° 0.1 mm 4 mps 734 mmHg 99%
    14:00 -2°C° 0.1 mm 5 mps 733 mmHg 99%
    15:00 -2°C° 0.1 mm 5 mps 732 mmHg 99%
    16:00 -2°C° 0.1 mm 4 mps 732 mmHg 99%
    17:00 -1°C° 0.1 mm 4 mps 732 mmHg 99%
    18:00 -1°C° 0.1 mm 4 mps 731 mmHg 98%
    19:00 -1°C° 0.8 mm 4 mps 731 mmHg 98%
    20:00 -1°C° 0.8 mm 4 mps 731 mmHg 98%
    21:00 -1°C° 0.8 mm 5 mps 731 mmHg 98%
    22:00 -1°C° 0.9 mm 5 mps 731 mmHg 97%
    23:00 -1°C° 0.9 mm 5 mps 730 mmHg 97%

    27 March, Wednesday

    Time Temperature Precipitation Wind Pressure Humidity
    00:00 -1°C° 0.9 mm 5 mps 730 mmHg 97%
    01:00 -1°C° 0.6 mm 5 mps 730 mmHg 96%
    02:00 -1°C° 0.6 mm 5 mps 730 mmHg 96%
    03:00 -1°C° 0.6 mm 5 mps 730 mmHg 95%
    04:00 -1°C° 0.3 mm 5 mps 730 mmHg 96%
    05:00 -1°C° 0.3 mm 4 mps 730 mmHg 97%
    06:00 -1°C° 0.3 mm 4 mps 730 mmHg 97%
    07:00 -1°C° 0.4 mm 3 mps 731 mmHg 98%
    08:00 -1°C° 0.4 mm 3 mps 731 mmHg 98%
    09:00 -1°C° 0.4 mm 3 mps 732 mmHg 99%
    10:00 -1°C° 0 mm 3 mps 732 mmHg 98%
    11:00 -1°C° 0 mm 3 mps 732 mmHg 98%
    12:00 -1°C° 0 mm 3 mps 733 mmHg 97%
    13:00 -1°C° 0 mm 2 mps 733 mmHg 96%
    14:00 -1°C° 0 mm 2 mps 733 mmHg 96%
    15:00 -1°C° 0 mm 2 mps 734 mmHg 96%
    16:00 -1°C° 0 mm 2 mps 734 mmHg 95%
    17:00 -2°C° 0 mm 2 mps 734 mmHg 94%
    18:00 -2°C° 0 mm 2 mps 734 mmHg 93%
    19:00 -3°C° 0 mm 2 mps 735 mmHg 93%
    20:00 -2°C° 0 mm 1 mps 735 mmHg 93%
    21:00 -3°C° 0 mm 1 mps 735 mmHg 93%
    22:00 -3°C° 0 mm 1 mps 735 mmHg 93%
    23:00 -5°C° 0 mm 2 mps 735 mmHg 92%

    28 March, Thursday

    Time Temperature Precipitation Wind Pressure Humidity
    00:00 -5°C° 0 mm 2 mps 735 mmHg 92%
    01:00 -5°C° 0 mm 2 mps 734 mmHg 91%
    02:00 -6°C° 0 mm 2 mps 734 mmHg 90%
    03:00 -7°C° 0 mm 3 mps 734 mmHg 89%
    04:00 -7°C° 0 mm 3 mps 734 mmHg 86%
    05:00 -6°C° 0 mm 3 mps 734 mmHg 84%
    06:00 -6°C° 0 mm 3 mps 734 mmHg 82%
    07:00 -6°C° 0 mm 3 mps 735 mmHg 80%
    08:00 -5°C° 0 mm 3 mps 735 mmHg 79%
    09:00 -5°C° 0 mm 4 mps 735 mmHg 78%
    10:00 -4°C° 0 mm 4 mps 735 mmHg 78%
    11:00 -4°C° 0 mm 4 mps 736 mmHg 79%
    12:00 -3°C° 0 mm 4 mps 736 mmHg 79%
    13:00 -4°C° 0 mm 5 mps 736 mmHg 81%
    14:00 -4°C° 0 mm 5 mps 736 mmHg 83%
    15:00 -4°C° 0 mm 5 mps 737 mmHg 85%
    16:00 -2°C° 0 mm 5 mps 737 mmHg 86%
    17:00 -2°C° 0 mm 5 mps 737 mmHg 87%
    18:00 -2°C° 0 mm 4 mps 737 mmHg 88%
    19:00 -4°C° 0.1 mm 5 mps 737 mmHg 88%
    20:00 -4°C° 0.1 mm 5 mps 738 mmHg 87%
    21:00 -4°C° 0.1 mm 5 mps 738 mmHg 87%
    22:00 -5°C° 0 mm 5 mps 738 mmHg 87%
    23:00 -5°C° 0 mm 5 mps 738 mmHg 88%

    29 March, Friday

    Time Temperature Precipitation Wind Pressure Humidity
    00:00 -5°C° 0 mm 5 mps 739 mmHg 88%
    01:00 -6°C° 0 mm 5 mps 739 mmHg 88%
    02:00 -7°C° 0 mm 4 mps 739 mmHg 89%
    03:00 -7°C° 0 mm 4 mps 739 mmHg 89%
    04:00 -7°C° 0 mm 4 mps 739 mmHg 89%
    05:00 -7°C° 0 mm 4 mps 739 mmHg 90%
    06:00 -8°C° 0 mm 4 mps 739 mmHg 90%
    07:00 -7°C° 0 mm 4 mps 740 mmHg 86%
    08:00 -7°C° 0 mm 4 mps 740 mmHg 82%
    09:00 -6°C° 0 mm 5 mps 740 mmHg 79%
    10:00 -5°C° 0 mm 5 mps 740 mmHg 77%
    11:00 -5°C° 0 mm 5 mps 739 mmHg 76%
    12:00 -4°C° 0 mm 5 mps 739 mmHg 74%
    13:00 -2°C° 0 mm 5 mps 738 mmHg 74%
    14:00 -2°C° 0 mm 5 mps 738 mmHg 73%
    15:00 -2°C° 0 mm 6 mps 737 mmHg 72%
    16:00 -2°C° 0.2 mm 5 mps 737 mmHg 75%
    17:00 -2°C° 0.2 mm 5 mps 736 mmHg 78%
    18:00 -2°C° 0.2 mm 5 mps 735 mmHg 81%
    19:00 -2°C° 0.8 mm 5 mps 735 mmHg 84%
    20:00 -2°C° 0.8 mm 5 mps 734 mmHg 87%
    21:00 -2°C° 0.8 mm 5 mps 734 mmHg 90%
    22:00 -2°C° 0.2 mm 5 mps 733 mmHg 90%
    23:00 -2°C° 0.2 mm 5 mps 733 mmHg 90%
    Show more